Find Gals 2

NORAD ID: 23717 Int'l Des: 1995-063 Owner: INFK/LAND Country: RU operational
HEOCIRCULAR

实时位置

正在加载3D地球...

关于 Gals 2

正在加载描述...

即将过境

Passes for default location (London). Set your location on the main map for personalized predictions.

高度历史

Loading altitude history...

两行轨道根数

1 23717U 95063A 26135.18451501 .00000110 00000-0 00000-0 0 9997
2 23717 14.4732 2.8509 0009070 337.7741 9.0567 0.99879540111297
Epoch: May 15, 2026 • Age: 19 hours

当前状态

高度 35883.7 km
速度 3.07 km/s
星下点 -14.48°S, 49.2°E
发射日期 Nov 17, 1995
运行时间 30.4 years
类型 other

技术详情

分类 Payload
质量 2600.00 kg
干质量 2400.00 kg
总质量 2600.00 kg
长度 6.60 m
直径 4.10 m
跨度 10.00 m
形状 Cyl + 2 Pan
制造商 NPOPMR
平台类型 Gals
阶段状态 Unknown Active Status
所有者/国家 INFK/LAND/RU

Most Searched